Location: Alto Pass Reservoir
(37.5801°N, 89.3084°W)
Time: 20:13:21
(UTC+00:00)

Cosmos 2298 Rocket - Pass Details

Date: 06 July 2022
Orbit: 775 x 784 km, 74.0° (Epoch: 11 August)

Event Time Altitude Azimuth Distance (km) Brightness Sun altitude
Rises 07:54:02 0° 354° (N) 3,280 8.1 -24.2°
Reaches altitude 10° 07:56:51 10° 7° (N) 2,347 7.4 -24.0°
Maximum altitude 08:01:13 25° 62° (ENE) 1,535 6.1 -23.5°
Drops below altitude 10° 08:05:34 10° 118° (ESE) 2,334 6.5 -23.1°
Sets 08:08:20 0° 131° (SE) 3,257 7.2 -22.8°
